This is the latest recevied weather packets stored in our database for station/object KD4IZ-13. If no packets are shown the sender has not sent any weather packets the latest 1 day(s).
| Time | Temp. | Humidity | Pressure | Rain* | Wind** | Luminosity | Snow |
|---|---|---|---|---|---|---|---|
| 1778040419 | 21.11° C | 57% | 1011.7 hPa | 0 mm | 2.24 m/s, 244° | 0 W/m² | - |
| 1778040116 | 21.67° C | 56% | 1011.9 hPa | 0 mm | 3.58 m/s, 216° | 0 W/m² | - |
| 1778039813 | 21.67° C | 56% | 1012 hPa | 0 mm | 1.79 m/s, 109° | 0 W/m² | - |
| 1778039510 | 21.67° C | 55% | 1011.7 hPa | 0 mm | 4.02 m/s, 208° | 0 W/m² | - |
| 1778039206 | 21.67° C | 56% | 1012 hPa | 0 mm | 2.24 m/s, 210° | 0 W/m² | - |
| 1778038904 | 21.67° C | 56% | 1011.9 hPa | 0 mm | 2.68 m/s, 239° | 0 W/m² | - |
| 1778038601 | 21.11° C | 55% | 1011.8 hPa | 0 mm | 2.68 m/s, 248° | 0 W/m² | - |
| 1778038297 | 21.67° C | 55% | 1011.8 hPa | 0 mm | 2.24 m/s, 162° | 0 W/m² | - |
| 1778037995 | 21.67° C | 54% | 1011.8 hPa | 0 mm | 2.68 m/s, 196° | 0 W/m² | - |
| 1778037691 | 21.67° C | 53% | 1011.8 hPa | 0 mm | 2.68 m/s, 234° | 0 W/m² | - |
| 1778037388 | 21.11° C | 53% | 1011.8 hPa | 0 mm | 1.34 m/s, 173° | 0 W/m² | - |
| 1778037085 | 21.11° C | 53% | 1011.9 hPa | 0 mm | 1.34 m/s, 208° | 0 W/m² | - |
| 1778036784 | 21.67° C | 53% | 1011.8 hPa | 0 mm | 2.24 m/s, 226° | 0 W/m² | - |
| 1778036481 | 21.67° C | 52% | 1011.9 hPa | 0 mm | 2.24 m/s, 219° | 0 W/m² | - |
| 1778036178 | 21.67° C | 52% | 1011.9 hPa | 0 mm | 1.34 m/s, 180° | 0 W/m² | - |
| 1778035873 | 21.67° C | 50% | 1012 hPa | 0 mm | 3.13 m/s, 148° | 0 W/m² | - |
| 1778035571 | 21.67° C | 49% | 1012.2 hPa | 0 mm | 2.68 m/s, 263° | 0 W/m² | - |
| 1778035267 | 21.67° C | 48% | 1012.2 hPa | 0 mm | 2.24 m/s, 207° | 0 W/m² | - |
| 1778034963 | 21.67° C | 48% | 1012 hPa | 0 mm | 1.79 m/s, 249° | 0 W/m² | - |
| 1778034661 | 22.22° C | 48% | 1011.9 hPa | 0 mm | 1.34 m/s, 270° | 0 W/m² | - |
| 1778034358 | 22.22° C | 47% | 1012.2 hPa | 0 mm | 1.34 m/s, 228° | 0 W/m² | - |
| 1778034056 | 22.22° C | 46% | 1012 hPa | 0 mm | 1.34 m/s, 115° | 0 W/m² | - |
| 1778033753 | 22.22° C | 46% | 1012 hPa | 0 mm | 1.34 m/s, 170° | 0 W/m² | - |
| 1778033450 | 22.78° C | 45% | 1011.9 hPa | 0 mm | 2.24 m/s, 237° | 0 W/m² | - |
| 1778033148 | 22.78° C | 45% | 1011.9 hPa | 0 mm | 1.34 m/s, 203° | 0 W/m² | - |
* Rain latest hour (hover to see other rain measurements)
** Current wind speed in m/s (hover to see current wind gust speed)